Location: Unspecified
(50.7693°N, 0.0000°E)
Time: 04:27:44
(UTC+00:00)

Vanguard 1 Rocket - Pass Details

Date: 25 June 2019
Orbit: 651 x 4225 km, 34.3° (Epoch: 16 July)

Event Time Altitude Azimuth Distance (km) Brightness Sun altitude
Rises 16:16:07 0° 229° (SW) 8,122 12.9 34.6°
Reaches altitude 10° 16:23:02 10° 222° (SW) 6,687 12.5 33.5°
Maximum altitude 16:39:07 33° 169° (S) 3,675 10.6 31.0°
Drops below altitude 10° 16:48:48 10° 111° (ESE) 4,024 10.3 29.4°
Sets 16:51:44 0° 101° (E) 4,626 10.5 29.0°
